Time,TemperatureF,DewpointF,PressureIn,WindDirection,WindDirectionDegrees,WindSpeedMPH,WindSpeedGustMPH,Humidity,HourlyPrecipIn,Conditions,Clouds,dailyrainin,SoftwareType,DateUTC
2013-04-03 00:00:00,38.4,29.5,30.19,NE,48,2.0,-999.0,70,0.00,,,0.00,WeatherSnoop3.0,2013-04-03 05:00:00,
2013-04-03 00:05:00,38.4,29.1,30.19,NE,47,2.0,-999.0,69,0.00,,,0.00,WeatherSnoop3.0,2013-04-03 05:05:00,
2013-04-03 00:10:00,38.4,29.1,30.19,NE,54,2.0,-999.0,69,0.00,,,0.00,WeatherSnoop3.0,2013-04-03 05:10:00,
2013-04-03 00:15:00,38.3,29.4,30.19,NE,44,1.0,-999.0,70,0.00,,,0.00,WeatherSnoop3.0,2013-04-03 05:15:00,
2013-04-03 00:20:00,38.1,29.5,30.19,North,6,4.0,-999.0,71,0.00,,,0.00,WeatherSnoop3.0,2013-04-03 05:20:00,
2013-04-03 00:25:00,37.8,29.9,30.19,NNE,19,3.0,-999.0,73,0.00,,,0.00,WeatherSnoop3.0,2013-04-03 05:25:00,
2013-04-03 00:30:00,37.5,30.0,30.19,NNE,26,2.0,-999.0,74,0.00,,,0.00,WeatherSnoop3.0,2013-04-03 05:30:00,
2013-04-03 00:35:00,37.3,30.1,30.19,NNE,33,2.0,-999.0,75,0.00,,,0.00,WeatherSnoop3.0,2013-04-03 05:35:00,
2013-04-03 00:40:00,37.1,29.9,30.19,NNE,32,0.0,-999.0,75,0.00,,,0.00,WeatherSnoop3.0,2013-04-03 05:40:00,
2013-04-03 00:45:00,36.9,29.7,30.20,North,349,2.0,-999.0,75,0.00,,,0.00,WeatherSnoop3.0,2013-04-03 05:45:00,
2013-04-03 00:50:00,36.9,29.7,30.20,NNE,23,2.0,-999.0,75,0.00,,,0.00,WeatherSnoop3.0,2013-04-03 05:50:00,
2013-04-03 00:55:00,36.9,29.7,30.20,ENE,72,1.0,-999.0,75,0.00,,,0.00,WeatherSnoop3.0,2013-04-03 05:55:00,
2013-04-03 01:00:00,36.9,30.1,30.20,NNE,24,1.0,-999.0,76,0.00,,,0.00,WeatherSnoop3.0,2013-04-03 06:00:00,
2013-04-03 01:05:00,36.9,30.1,30.21,North,1,0.0,-999.0,76,0.00,,,0.00,WeatherSnoop3.0,2013-04-03 06:05:00,
2013-04-03 01:10:00,36.9,30.4,30.21,NE,47,0.0,-999.0,77,0.00,,,0.00,WeatherSnoop3.0,2013-04-03 06:10:00,
2013-04-03 01:15:00,36.9,30.1,30.22,NE,34,0.0,-999.0,76,0.00,,,0.00,WeatherSnoop3.0,2013-04-03 06:15:00,
2013-04-03 01:20:00,37.0,30.2,30.21,NNE,16,0.0,-999.0,76,0.00,,,0.00,WeatherSnoop3.0,2013-04-03 06:20:00,
2013-04-03 01:25:00,37.1,29.9,30.21,NNE,23,2.0,-999.0,75,0.00,,,0.00,WeatherSnoop3.0,2013-04-03 06:25:00,
2013-04-03 01:30:00,37.1,30.2,30.21,NNE,19,2.0,-999.0,76,0.00,,,0.00,WeatherSnoop3.0,2013-04-03 06:30:00,
2013-04-03 01:35:00,37.1,29.9,30.21,NNW,338,1.0,-999.0,75,0.00,,,0.00,WeatherSnoop3.0,2013-04-03 06:35:00,
2013-04-03 01:40:00,37.2,30.0,30.21,NE,41,2.0,-999.0,75,0.00,,,0.00,WeatherSnoop3.0,2013-04-03 06:40:00,
2013-04-03 01:45:00,37.1,30.6,30.21,NNE,18,1.0,-999.0,77,0.00,,,0.00,WeatherSnoop3.0,2013-04-03 06:45:00,
2013-04-03 01:51:00,37.2,30.7,30.21,NNE,13,0.0,-999.0,77,0.00,,,0.00,WeatherSnoop3.0,2013-04-03 06:51:00,
2013-04-03 01:56:00,37.2,30.7,30.22,NE,34,1.0,-999.0,77,0.00,,,0.00,WeatherSnoop3.0,2013-04-03 06:56:00,
2013-04-03 02:01:00,37.3,30.4,30.22,North,5,1.0,-999.0,76,0.00,,,0.00,WeatherSnoop3.0,2013-04-03 07:01:00,
2013-04-03 02:06:00,37.4,30.9,30.22,NNE,28,1.0,-999.0,77,0.00,,,0.00,WeatherSnoop3.0,2013-04-03 07:06:00,
2013-04-03 02:11:00,37.4,30.5,30.22,NE,46,2.0,-999.0,76,0.00,,,0.00,WeatherSnoop3.0,2013-04-03 07:11:00,
2013-04-03 02:16:00,37.5,30.0,30.21,NNE,19,3.0,-999.0,74,0.00,,,0.00,WeatherSnoop3.0,2013-04-03 07:16:00,
2013-04-03 02:21:00,37.6,30.1,30.21,NE,34,2.0,-999.0,74,0.00,,,0.00,WeatherSnoop3.0,2013-04-03 07:21:00,
2013-04-03 02:26:00,37.6,30.4,30.21,NNE,16,3.0,-999.0,75,0.00,,,0.00,WeatherSnoop3.0,2013-04-03 07:26:00,
2013-04-03 02:31:00,37.6,30.4,30.21,NNE,15,2.0,-999.0,75,0.00,,,0.00,WeatherSnoop3.0,2013-04-03 07:31:00,
2013-04-03 02:36:00,37.6,30.4,30.21,NE,39,1.0,-999.0,75,0.00,,,0.00,WeatherSnoop3.0,2013-04-03 07:36:00,
2013-04-03 02:41:00,37.6,30.7,30.20,NNE,13,2.0,-999.0,76,0.00,,,0.00,WeatherSnoop3.0,2013-04-03 07:41:00,
2013-04-03 02:46:00,37.6,31.4,30.21,NNE,23,1.0,-999.0,78,0.00,,,0.00,WeatherSnoop3.0,2013-04-03 07:46:00,
2013-04-03 02:51:00,37.5,31.3,30.21,NE,36,1.0,-999.0,78,0.00,,,0.00,WeatherSnoop3.0,2013-04-03 07:51:00,
2013-04-03 02:57:00,37.5,31.0,30.21,NE,41,2.0,-999.0,77,0.00,,,0.00,WeatherSnoop3.0,2013-04-03 07:57:00,
2013-04-03 03:01:00,37.6,30.7,30.21,NNE,13,2.0,-999.0,76,0.00,,,0.00,WeatherSnoop3.0,2013-04-03 08:01:00,
2013-04-03 03:06:00,37.6,30.7,30.21,NE,46,3.0,-999.0,76,0.00,,,0.00,WeatherSnoop3.0,2013-04-03 08:06:00,
2013-04-03 03:11:00,37.7,30.5,30.21,ENE,59,3.0,-999.0,75,0.00,,,0.00,WeatherSnoop3.0,2013-04-03 08:11:00,
2013-04-03 03:16:00,37.7,30.8,30.20,NNE,23,1.0,-999.0,76,0.00,,,0.00,WeatherSnoop3.0,2013-04-03 08:16:00,
2013-04-03 03:22:00,37.7,30.5,30.20,NNE,23,1.0,-999.0,75,0.00,,,0.00,WeatherSnoop3.0,2013-04-03 08:22:00,
2013-04-03 03:27:00,37.7,31.2,30.20,ENE,63,2.0,-999.0,77,0.00,,,0.00,WeatherSnoop3.0,2013-04-03 08:27:00,
2013-04-03 03:32:00,37.6,30.7,30.20,NE,56,0.0,-999.0,76,0.00,,,0.00,WeatherSnoop3.0,2013-04-03 08:32:00,
2013-04-03 03:37:00,37.6,31.1,30.20,NE,46,1.0,-999.0,77,0.00,,,0.00,WeatherSnoop3.0,2013-04-03 08:37:00,
2013-04-03 03:42:00,37.6,31.1,30.20,NE,43,0.0,-999.0,77,0.00,,,0.00,WeatherSnoop3.0,2013-04-03 08:42:00,
2013-04-03 03:47:00,37.7,30.8,30.20,NNE,23,2.0,-999.0,76,0.00,,,0.00,WeatherSnoop3.0,2013-04-03 08:47:00,
2013-04-03 03:52:00,37.7,30.8,30.20,NNE,32,1.0,-999.0,76,0.00,,,0.00,WeatherSnoop3.0,2013-04-03 08:52:00,
2013-04-03 03:57:00,37.7,31.2,30.20,NE,51,4.0,-999.0,77,0.00,,,0.00,WeatherSnoop3.0,2013-04-03 08:57:00,
2013-04-03 04:02:00,37.7,31.5,30.20,NE,43,2.0,-999.0,78,0.00,,,0.00,WeatherSnoop3.0,2013-04-03 09:02:00,
2013-04-03 04:07:00,37.7,31.8,30.20,NE,39,2.0,-999.0,79,0.00,,,0.00,WeatherSnoop3.0,2013-04-03 09:07:00,
2013-04-03 04:12:00,37.7,31.8,30.19,NE,53,2.0,-999.0,79,0.00,,,0.00,WeatherSnoop3.0,2013-04-03 09:12:00,
2013-04-03 04:17:00,37.7,31.5,30.19,NE,51,1.0,-999.0,78,0.00,,,0.00,WeatherSnoop3.0,2013-04-03 09:17:00,
2013-04-03 04:22:00,37.7,31.2,30.18,NE,51,3.0,-999.0,77,0.00,,,0.00,WeatherSnoop3.0,2013-04-03 09:22:00,
2013-04-03 04:27:00,37.8,31.2,30.18,NNW,348,3.0,-999.0,77,0.00,,,0.00,WeatherSnoop3.0,2013-04-03 09:27:00,
2013-04-03 04:32:00,37.8,31.6,30.18,NE,41,4.0,-999.0,78,0.00,,,0.00,WeatherSnoop3.0,2013-04-03 09:32:00,
2013-04-03 04:37:00,37.8,31.2,30.18,NNW,342,6.0,-999.0,77,0.00,,,0.00,WeatherSnoop3.0,2013-04-03 09:37:00,
2013-04-03 04:42:00,37.9,31.7,30.18,NNE,32,3.0,-999.0,78,0.00,,,0.00,WeatherSnoop3.0,2013-04-03 09:42:00,
2013-04-03 04:47:00,37.9,31.3,30.19,NE,39,3.0,-999.0,77,0.00,,,0.00,WeatherSnoop3.0,2013-04-03 09:47:00,
2013-04-03 04:52:00,37.9,31.3,30.19,NNE,30,4.0,-999.0,77,0.00,,,0.00,WeatherSnoop3.0,2013-04-03 09:52:00,
2013-04-03 04:57:00,37.9,31.7,30.19,East,81,1.0,-999.0,78,0.00,,,0.00,WeatherSnoop3.0,2013-04-03 09:57:00,
2013-04-03 05:02:00,37.9,31.3,30.19,NE,37,2.0,-999.0,77,0.00,,,0.00,WeatherSnoop3.0,2013-04-03 10:02:00,
2013-04-03 05:08:00,37.9,31.7,30.19,East,86,0.0,-999.0,78,0.00,,,0.00,WeatherSnoop3.0,2013-04-03 10:08:00,
2013-04-03 05:13:00,37.9,31.3,30.19,NE,53,2.0,-999.0,77,0.00,,,0.00,WeatherSnoop3.0,2013-04-03 10:13:00,
2013-04-03 05:18:00,37.9,31.3,30.19,NE,51,3.0,-999.0,77,0.00,,,0.00,WeatherSnoop3.0,2013-04-03 10:18:00,
2013-04-03 05:23:00,37.9,31.3,30.19,ENE,57,2.0,-999.0,77,0.00,,,0.00,WeatherSnoop3.0,2013-04-03 10:23:00,
2013-04-03 05:28:00,37.9,31.3,30.19,NE,56,2.0,-999.0,77,0.00,,,0.00,WeatherSnoop3.0,2013-04-03 10:28:00,
2013-04-03 05:33:00,37.9,31.7,30.19,NE,54,2.0,-999.0,78,0.00,,,0.00,WeatherSnoop3.0,2013-04-03 10:33:00,
2013-04-03 05:38:00,37.9,31.7,30.19,NE,50,2.0,-999.0,78,0.00,,,0.00,WeatherSnoop3.0,2013-04-03 10:38:00,
2013-04-03 05:43:00,37.9,31.7,30.19,ENE,75,1.0,-999.0,78,0.00,,,0.00,WeatherSnoop3.0,2013-04-03 10:43:00,
2013-04-03 05:48:00,38.0,31.4,30.19,East,85,1.0,-999.0,77,0.00,,,0.00,WeatherSnoop3.0,2013-04-03 10:48:00,
2013-04-03 05:53:00,37.9,31.7,30.19,NE,51,2.0,-999.0,78,0.00,,,0.00,WeatherSnoop3.0,2013-04-03 10:53:00,
2013-04-03 05:58:00,38.0,31.8,30.20,NE,47,1.0,-999.0,78,0.00,,,0.00,WeatherSnoop3.0,2013-04-03 10:58:00,
2013-04-03 06:03:00,38.0,31.8,30.19,NNE,28,4.0,-999.0,78,0.00,,,0.00,WeatherSnoop3.0,2013-04-03 11:03:00,
2013-04-03 06:08:00,38.0,31.8,30.20,ENE,65,3.0,-999.0,78,0.00,,,0.00,WeatherSnoop3.0,2013-04-03 11:08:00,
2013-04-03 06:13:00,38.1,30.9,30.20,NE,39,4.0,-999.0,75,0.00,,,0.00,WeatherSnoop3.0,2013-04-03 11:13:00,
2013-04-03 06:18:00,38.1,30.2,30.20,ENE,57,3.0,-999.0,73,0.00,,,0.00,WeatherSnoop3.0,2013-04-03 11:18:00,
2013-04-03 06:23:00,38.3,29.4,30.19,NE,56,4.0,-999.0,70,0.00,,,0.00,WeatherSnoop3.0,2013-04-03 11:23:00,
2013-04-03 06:28:00,38.4,29.8,30.19,NE,53,4.0,-999.0,71,0.00,,,0.00,WeatherSnoop3.0,2013-04-03 11:28:00,
2013-04-03 06:33:00,38.4,29.5,30.19,NE,50,2.0,-999.0,70,0.00,,,0.00,WeatherSnoop3.0,2013-04-03 11:33:00,
2013-04-03 06:38:00,38.4,29.5,30.19,ENE,59,2.0,-999.0,70,0.00,,,0.00,WeatherSnoop3.0,2013-04-03 11:38:00,
2013-04-03 06:43:00,38.3,29.7,30.20,ENE,58,2.0,-999.0,71,0.00,,,0.00,WeatherSnoop3.0,2013-04-03 11:43:00,
2013-04-03 06:48:00,38.3,29.4,30.20,ENE,63,7.0,-999.0,70,0.00,,,0.00,WeatherSnoop3.0,2013-04-03 11:48:00,
2013-04-03 06:53:00,38.3,29.4,30.19,ENE,70,3.0,-999.0,70,0.00,,,0.00,WeatherSnoop3.0,2013-04-03 11:53:00,
2013-04-03 06:58:00,38.3,29.0,30.20,ENE,65,2.0,-999.0,69,0.00,,,0.00,WeatherSnoop3.0,2013-04-03 11:58:00,
2013-04-03 07:03:00,38.3,29.4,30.20,ENE,57,3.0,-999.0,70,0.00,,,0.00,WeatherSnoop3.0,2013-04-03 12:03:00,
2013-04-03 07:08:00,38.2,29.3,30.21,ENE,77,1.0,-999.0,70,0.00,,,0.00,WeatherSnoop3.0,2013-04-03 12:08:00,
2013-04-03 07:13:00,38.2,28.9,30.21,ENE,65,4.0,-999.0,69,0.00,,,0.00,WeatherSnoop3.0,2013-04-03 12:13:00,
2013-04-03 07:18:00,38.1,29.5,30.22,NE,53,3.0,-999.0,71,0.00,,,0.00,WeatherSnoop3.0,2013-04-03 12:18:00,
2013-04-03 07:23:00,38.1,29.2,30.22,NE,39,2.0,-999.0,70,0.00,,,0.00,WeatherSnoop3.0,2013-04-03 12:23:00,
2013-04-03 07:28:00,38.1,29.2,30.22,ENE,57,2.0,-999.0,70,0.00,,,0.00,WeatherSnoop3.0,2013-04-03 12:28:00,
2013-04-03 07:33:00,38.1,28.8,30.22,NE,48,3.0,-999.0,69,0.00,,,0.00,WeatherSnoop3.0,2013-04-03 12:33:00,
2013-04-03 07:38:00,38.0,29.4,30.22,East,84,1.0,-999.0,71,0.00,,,0.00,WeatherSnoop3.0,2013-04-03 12:38:00,
2013-04-03 07:43:00,38.0,29.4,30.23,NE,41,4.0,-999.0,71,0.00,,,0.00,WeatherSnoop3.0,2013-04-03 12:43:00,
2013-04-03 07:48:00,38.0,29.1,30.23,ENE,65,4.0,-999.0,70,0.00,,,0.00,WeatherSnoop3.0,2013-04-03 12:48:00,
2013-04-03 07:53:00,37.9,29.0,30.23,East,84,2.0,-999.0,70,0.00,,,0.00,WeatherSnoop3.0,2013-04-03 12:53:00,
2013-04-03 07:58:00,37.9,29.4,30.23,ENE,77,0.0,-999.0,71,0.00,,,0.00,WeatherSnoop3.0,2013-04-03 12:58:00,
2013-04-03 08:03:00,37.9,29.0,30.24,East,84,2.0,-999.0,70,0.00,,,0.00,WeatherSnoop3.0,2013-04-03 13:03:00,
2013-04-03 08:08:00,37.9,29.0,30.24,East,86,2.0,-999.0,70,0.00,,,0.00,WeatherSnoop3.0,2013-04-03 13:08:00,
2013-04-03 08:13:00,37.9,29.4,30.24,ENE,72,1.0,-999.0,71,0.00,,,0.00,WeatherSnoop3.0,2013-04-03 13:13:00,
2013-04-03 08:18:00,37.8,29.3,30.25,ENE,77,0.0,-999.0,71,0.00,,,0.00,WeatherSnoop3.0,2013-04-03 13:18:00,
2013-04-03 08:23:00,37.9,29.0,30.25,East,89,0.0,-999.0,70,0.00,,,0.00,WeatherSnoop3.0,2013-04-03 13:23:00,
2013-04-03 08:28:00,37.9,29.4,30.25,ENE,63,0.0,-999.0,71,0.00,,,0.00,WeatherSnoop3.0,2013-04-03 13:28:00,
2013-04-03 08:33:00,38.0,28.7,30.25,East,93,1.0,-999.0,69,0.00,,,0.00,WeatherSnoop3.0,2013-04-03 13:33:00,
2013-04-03 08:38:00,38.3,27.6,30.26,ESE,110,1.0,-999.0,65,0.00,,,0.00,WeatherSnoop3.0,2013-04-03 13:38:00,
2013-04-03 08:43:00,38.5,27.4,30.26,SE,139,3.0,-999.0,64,0.00,,,0.00,WeatherSnoop3.0,2013-04-03 13:43:00,
2013-04-03 08:48:00,38.6,27.5,30.26,ESE,108,0.0,-999.0,64,0.00,,,0.00,WeatherSnoop3.0,2013-04-03 13:48:00,
2013-04-03 08:53:00,38.4,28.0,30.27,East,82,8.0,-999.0,66,0.00,,,0.00,WeatherSnoop3.0,2013-04-03 13:53:00,
2013-04-03 08:58:00,37.4,28.5,30.27,SE,134,3.0,-999.0,70,0.00,,,0.00,WeatherSnoop3.0,2013-04-03 13:58:00,
2013-04-03 09:03:00,36.3,30.1,30.27,East,89,5.0,-999.0,78,0.00,,,0.00,WeatherSnoop3.0,2013-04-03 14:03:00,
2013-04-03 09:08:00,34.9,30.6,30.27,East,81,3.0,-999.0,84,0.00,,,0.00,WeatherSnoop3.0,2013-04-03 14:08:00,
2013-04-03 09:13:00,34.3,30.8,30.27,East,82,1.0,-999.0,87,0.00,,,0.00,WeatherSnoop3.0,2013-04-03 14:13:00,
2013-04-03 09:18:00,33.7,30.8,30.26,NE,49,2.0,-999.0,89,0.00,,,0.00,WeatherSnoop3.0,2013-04-03 14:18:00,
2013-04-03 09:23:00,33.3,30.7,30.25,NE,50,4.0,-999.0,90,0.00,,,0.00,WeatherSnoop3.0,2013-04-03 14:23:00,
2013-04-03 09:28:00,33.2,31.1,30.25,NNE,26,3.0,-999.0,92,0.00,,,0.00,WeatherSnoop3.0,2013-04-03 14:28:00,
2013-04-03 09:33:00,33.6,31.0,30.25,NE,56,1.0,-999.0,90,0.00,,,0.00,WeatherSnoop3.0,2013-04-03 14:33:00,
2013-04-03 09:38:00,34.0,31.4,30.25,NE,36,2.0,-999.0,90,0.00,,,0.00,WeatherSnoop3.0,2013-04-03 14:38:00,
2013-04-03 09:43:00,34.2,31.6,30.25,NNE,20,0.0,-999.0,90,0.00,,,0.00,WeatherSnoop3.0,2013-04-03 14:43:00,
2013-04-03 09:48:00,34.3,32.0,30.25,ENE,57,1.0,-999.0,91,0.00,,,0.01,WeatherSnoop3.0,2013-04-03 14:48:00,
2013-04-03 09:53:00,34.6,32.0,30.25,ENE,67,0.0,-999.0,90,0.00,,,0.01,WeatherSnoop3.0,2013-04-03 14:53:00,
2013-04-03 09:58:00,34.9,32.0,30.25,East,94,1.0,-999.0,89,0.00,,,0.01,WeatherSnoop3.0,2013-04-03 14:58:00,
2013-04-03 10:03:00,35.2,32.3,30.26,SE,137,1.0,-999.0,89,0.00,,,0.01,WeatherSnoop3.0,2013-04-03 15:03:00,
2013-04-03 10:08:00,35.5,31.4,30.26,ESE,106,0.0,-999.0,85,0.00,,,0.02,WeatherSnoop3.0,2013-04-03 15:08:00,
2013-04-03 10:13:00,35.9,30.6,30.27,East,84,1.0,-999.0,81,0.00,,,0.02,WeatherSnoop3.0,2013-04-03 15:13:00,
2013-04-03 10:18:00,36.3,29.8,30.27,ENE,77,2.0,-999.0,77,0.00,,,0.02,WeatherSnoop3.0,2013-04-03 15:18:00,
2013-04-03 10:23:00,36.6,30.4,30.27,ESE,110,4.0,-999.0,78,0.00,,,0.02,WeatherSnoop3.0,2013-04-03 15:23:00,
2013-04-03 10:28:00,36.7,29.9,30.28,East,88,3.0,-999.0,76,0.00,,,0.03,WeatherSnoop3.0,2013-04-03 15:28:00,
2013-04-03 10:33:00,36.2,30.3,30.28,East,101,5.0,-999.0,79,0.00,,,0.03,WeatherSnoop3.0,2013-04-03 15:33:00,
2013-04-03 10:38:00,35.6,31.0,30.28,East,81,4.0,-999.0,83,0.00,,,0.03,WeatherSnoop3.0,2013-04-03 15:38:00,
2013-04-03 10:43:00,35.1,31.1,30.28,ENE,75,6.0,-999.0,85,0.00,,,0.03,WeatherSnoop3.0,2013-04-03 15:43:00,
2013-04-03 10:48:00,34.6,31.1,30.29,East,89,2.0,-999.0,87,0.00,,,0.03,WeatherSnoop3.0,2013-04-03 15:48:00,
2013-04-03 10:54:00,34.4,31.2,30.28,East,92,2.0,-999.0,88,0.00,,,0.03,WeatherSnoop3.0,2013-04-03 15:54:00,
2013-04-03 10:59:00,34.2,31.6,30.28,ENE,77,1.0,-999.0,90,0.00,,,0.04,WeatherSnoop3.0,2013-04-03 15:59:00,
2013-04-03 11:04:00,34.1,31.8,30.28,East,96,1.0,-999.0,91,0.00,,,0.04,WeatherSnoop3.0,2013-04-03 16:04:00,
2013-04-03 11:09:00,34.1,31.8,30.28,NNE,30,1.0,-999.0,91,0.00,,,0.04,WeatherSnoop3.0,2013-04-03 16:09:00,
2013-04-03 11:14:00,34.2,31.9,30.28,NNE,29,3.0,-999.0,91,0.00,,,0.04,WeatherSnoop3.0,2013-04-03 16:14:00,
2013-04-03 11:20:00,34.5,32.1,30.28,NNW,334,2.0,-999.0,91,0.00,,,0.05,WeatherSnoop3.0,2013-04-03 16:20:00,
2013-04-03 11:25:00,34.7,32.3,30.28,ENE,65,2.0,-999.0,91,0.00,,,0.05,WeatherSnoop3.0,2013-04-03 16:25:00,
2013-04-03 11:30:00,35.1,32.7,30.28,NNE,26,4.0,-999.0,91,0.00,,,0.05,WeatherSnoop3.0,2013-04-03 16:30:00,
2013-04-03 11:35:00,35.3,32.7,30.28,NNE,15,4.0,-999.0,90,0.00,,,0.05,WeatherSnoop3.0,2013-04-03 16:35:00,
2013-04-03 11:40:00,35.3,32.4,30.27,NNE,15,2.0,-999.0,89,0.00,,,0.05,WeatherSnoop3.0,2013-04-03 16:40:00,
2013-04-03 11:45:00,35.5,32.9,30.27,ENE,58,2.0,-999.0,90,0.00,,,0.05,WeatherSnoop3.0,2013-04-03 16:45:00,
2013-04-03 11:50:00,35.6,32.7,30.27,NE,49,3.0,-999.0,89,0.00,,,0.05,WeatherSnoop3.0,2013-04-03 16:50:00,
2013-04-03 11:55:00,36.1,33.5,30.27,ENE,57,1.0,-999.0,90,0.00,,,0.05,WeatherSnoop3.0,2013-04-03 16:55:00,
2013-04-03 12:00:00,36.4,33.2,30.27,NE,41,3.0,-999.0,88,0.00,,,0.05,WeatherSnoop3.0,2013-04-03 17:00:00,
2013-04-03 12:05:00,36.6,33.1,30.27,NNE,29,3.0,-999.0,87,0.00,,,0.05,WeatherSnoop3.0,2013-04-03 17:05:00,
2013-04-03 12:10:00,36.8,33.0,30.27,NNE,27,2.0,-999.0,86,0.00,,,0.05,WeatherSnoop3.0,2013-04-03 17:10:00,
2013-04-03 12:15:00,37.0,33.2,30.27,North,360,3.0,-999.0,86,0.00,,,0.05,WeatherSnoop3.0,2013-04-03 17:15:00,
2013-04-03 12:20:00,37.3,33.2,30.27,East,81,5.0,-999.0,85,0.00,,,0.05,WeatherSnoop3.0,2013-04-03 17:20:00,
2013-04-03 12:25:00,37.5,33.4,30.27,NE,51,2.0,-999.0,85,0.00,,,0.05,WeatherSnoop3.0,2013-04-03 17:25:00,
2013-04-03 12:30:00,37.8,33.4,30.28,ESE,103,0.0,-999.0,84,0.00,,,0.05,WeatherSnoop3.0,2013-04-03 17:30:00,
2013-04-03 12:36:00,37.8,33.1,30.27,ESE,119,0.0,-999.0,83,0.00,,,0.05,WeatherSnoop3.0,2013-04-03 17:36:00,
2013-04-03 12:41:00,37.7,33.0,30.27,ESE,122,0.0,-999.0,83,0.00,,,0.05,WeatherSnoop3.0,2013-04-03 17:41:00,
2013-04-03 12:47:00,37.5,33.1,30.27,SSE,154,3.0,-999.0,84,0.00,,,0.05,WeatherSnoop3.0,2013-04-03 17:47:00,
2013-04-03 12:52:00,37.6,33.5,30.28,SE,134,2.0,-999.0,85,0.00,,,0.05,WeatherSnoop3.0,2013-04-03 17:52:00,
2013-04-03 12:57:00,37.6,32.9,30.28,ESE,119,4.0,-999.0,83,0.00,,,0.05,WeatherSnoop3.0,2013-04-03 17:57:00,
2013-04-03 13:02:00,37.5,32.8,30.28,SE,137,0.0,-999.0,83,0.00,,,0.05,WeatherSnoop3.0,2013-04-03 18:02:00,
2013-04-03 13:07:00,37.7,33.3,30.27,SSE,149,5.0,-999.0,84,0.00,,,0.05,WeatherSnoop3.0,2013-04-03 18:07:00,
2013-04-03 13:12:00,37.9,33.2,30.27,SE,126,3.0,-999.0,83,0.00,,,0.05,WeatherSnoop3.0,2013-04-03 18:12:00,
2013-04-03 13:17:00,37.9,33.2,30.27,East,95,2.0,-999.0,83,0.00,,,0.05,WeatherSnoop3.0,2013-04-03 18:17:00,
2013-04-03 13:23:00,37.8,33.1,30.27,ESE,119,3.0,-999.0,83,0.00,,,0.05,WeatherSnoop3.0,2013-04-03 18:23:00,
2013-04-03 13:28:00,37.8,33.4,30.27,ESE,103,2.0,-999.0,84,0.00,,,0.05,WeatherSnoop3.0,2013-04-03 18:28:00,
2013-04-03 13:34:00,38.0,33.3,30.26,ESE,103,4.0,-999.0,83,0.00,,,0.05,WeatherSnoop3.0,2013-04-03 18:34:00,
2013-04-03 13:39:00,38.1,33.4,30.26,ESE,105,3.0,-999.0,83,0.00,,,0.05,WeatherSnoop3.0,2013-04-03 18:39:00,
2013-04-03 13:44:00,38.2,33.5,30.26,NE,46,2.0,-999.0,83,0.00,,,0.05,WeatherSnoop3.0,2013-04-03 18:44:00,
2013-04-03 13:49:00,38.4,32.8,30.26,East,85,6.0,-999.0,80,0.00,,,0.05,WeatherSnoop3.0,2013-04-03 18:49:00,
2013-04-03 13:54:00,38.5,33.2,30.26,ENE,68,4.0,-999.0,81,0.00,,,0.05,WeatherSnoop3.0,2013-04-03 18:54:00,
2013-04-03 13:59:00,38.3,32.7,30.26,East,89,5.0,-999.0,80,0.00,,,0.05,WeatherSnoop3.0,2013-04-03 18:59:00,
2013-04-03 14:04:00,38.2,32.9,30.26,East,96,3.0,-999.0,81,0.00,,,0.05,WeatherSnoop3.0,2013-04-03 19:04:00,
2013-04-03 14:09:00,38.3,33.3,30.26,East,89,5.0,-999.0,82,0.00,,,0.05,WeatherSnoop3.0,2013-04-03 19:09:00,
2013-04-03 14:14:00,38.5,33.5,30.25,East,93,3.0,-999.0,82,0.00,,,0.05,WeatherSnoop3.0,2013-04-03 19:14:00,
2013-04-03 14:19:00,38.5,33.8,30.25,East,88,2.0,-999.0,83,0.00,,,0.05,WeatherSnoop3.0,2013-04-03 19:19:00,
2013-04-03 14:24:00,38.4,33.4,30.25,ENE,77,2.0,-999.0,82,0.00,,,0.05,WeatherSnoop3.0,2013-04-03 19:24:00,
2013-04-03 14:29:00,38.4,33.7,30.25,East,85,2.0,-999.0,83,0.00,,,0.05,WeatherSnoop3.0,2013-04-03 19:29:00,
2013-04-03 14:34:00,38.3,33.3,30.25,East,81,3.0,-999.0,82,0.00,,,0.05,WeatherSnoop3.0,2013-04-03 19:34:00,
2013-04-03 14:39:00,38.1,33.4,30.25,ENE,63,2.0,-999.0,83,0.00,,,0.05,WeatherSnoop3.0,2013-04-03 19:39:00,
2013-04-03 14:44:00,38.4,34.3,30.24,ENE,65,3.0,-999.0,85,0.00,,,0.05,WeatherSnoop3.0,2013-04-03 19:44:00,
2013-04-03 14:49:00,38.5,33.8,30.24,NE,55,1.0,-999.0,83,0.00,,,0.05,WeatherSnoop3.0,2013-04-03 19:49:00,
2013-04-03 14:55:00,38.7,34.3,30.24,East,85,3.0,-999.0,84,0.00,,,0.05,WeatherSnoop3.0,2013-04-03 19:55:00,
2013-04-03 15:00:00,38.5,34.4,30.24,NE,47,6.0,-999.0,85,0.00,,,0.05,WeatherSnoop3.0,2013-04-03 20:00:00,
2013-04-03 15:05:00,38.4,34.0,30.23,East,95,5.0,-999.0,84,0.00,,,0.05,WeatherSnoop3.0,2013-04-03 20:05:00,
2013-04-03 15:10:00,38.2,34.1,30.23,ENE,60,7.0,-999.0,85,0.00,,,0.05,WeatherSnoop3.0,2013-04-03 20:10:00,
2013-04-03 15:15:00,38.3,34.2,30.23,ENE,75,2.0,-999.0,85,0.00,,,0.05,WeatherSnoop3.0,2013-04-03 20:15:00,
2013-04-03 15:20:00,38.3,34.5,30.23,ENE,71,3.0,-999.0,86,0.00,,,0.05,WeatherSnoop3.0,2013-04-03 20:20:00,
2013-04-03 15:25:00,38.1,34.0,30.23,East,79,2.0,-999.0,85,0.00,,,0.05,WeatherSnoop3.0,2013-04-03 20:25:00,
2013-04-03 15:30:00,38.1,34.0,30.23,ENE,77,3.0,-999.0,85,0.00,,,0.05,WeatherSnoop3.0,2013-04-03 20:30:00,
2013-04-03 15:35:00,38.1,34.3,30.23,ENE,63,2.0,-999.0,86,0.00,,,0.05,WeatherSnoop3.0,2013-04-03 20:35:00,
2013-04-03 15:40:00,38.2,34.4,30.23,East,82,2.0,-999.0,86,0.00,,,0.05,WeatherSnoop3.0,2013-04-03 20:40:00,
2013-04-03 15:45:00,38.2,33.8,30.23,NE,52,7.0,-999.0,84,0.00,,,0.05,WeatherSnoop3.0,2013-04-03 20:45:00,
2013-04-03 15:51:00,38.1,34.0,30.23,East,101,4.0,-999.0,85,0.00,,,0.05,WeatherSnoop3.0,2013-04-03 20:51:00,
2013-04-03 15:56:00,38.1,34.0,30.22,East,91,2.0,-999.0,85,0.00,,,0.05,WeatherSnoop3.0,2013-04-03 20:56:00,
2013-04-03 16:01:00,38.4,34.3,30.22,East,86,3.0,-999.0,85,0.00,,,0.05,WeatherSnoop3.0,2013-04-03 21:01:00,
2013-04-03 16:06:00,38.3,34.2,30.22,North,358,2.0,-999.0,85,0.00,,,0.05,WeatherSnoop3.0,2013-04-03 21:06:00,
2013-04-03 16:12:00,38.4,34.0,30.22,East,87,3.0,-999.0,84,0.00,,,0.05,WeatherSnoop3.0,2013-04-03 21:12:00,
2013-04-03 16:16:00,38.3,34.2,30.21,ENE,77,2.0,-999.0,85,0.00,,,0.05,WeatherSnoop3.0,2013-04-03 21:16:00,
2013-04-03 16:21:00,38.6,34.2,30.21,East,89,3.0,-999.0,84,0.00,,,0.05,WeatherSnoop3.0,2013-04-03 21:21:00,
2013-04-03 16:27:00,38.4,33.7,30.21,NE,44,4.0,-999.0,83,0.00,,,0.05,WeatherSnoop3.0,2013-04-03 21:27:00,
2013-04-03 16:32:00,38.4,34.0,30.20,East,81,2.0,-999.0,84,0.00,,,0.05,WeatherSnoop3.0,2013-04-03 21:32:00,
2013-04-03 16:37:00,38.5,34.1,30.20,ENE,71,2.0,-999.0,84,0.00,,,0.05,WeatherSnoop3.0,2013-04-03 21:37:00,
2013-04-03 16:42:00,38.5,33.8,30.20,ENE,68,1.0,-999.0,83,0.00,,,0.05,WeatherSnoop3.0,2013-04-03 21:42:00,
2013-04-03 16:47:00,38.4,34.0,30.20,NNE,26,4.0,-999.0,84,0.00,,,0.05,WeatherSnoop3.0,2013-04-03 21:47:00,
2013-04-03 16:52:00,38.4,34.0,30.19,NNE,30,3.0,-999.0,84,0.00,,,0.05,WeatherSnoop3.0,2013-04-03 21:52:00,
2013-04-03 16:57:00,38.4,33.7,30.19,NE,47,5.0,-999.0,83,0.00,,,0.05,WeatherSnoop3.0,2013-04-03 21:57:00,
2013-04-03 17:02:00,38.3,33.9,30.19,NE,53,5.0,-999.0,84,0.00,,,0.05,WeatherSnoop3.0,2013-04-03 22:02:00,
2013-04-03 17:07:00,38.4,34.3,30.19,NE,50,5.0,-999.0,85,0.00,,,0.05,WeatherSnoop3.0,2013-04-03 22:07:00,
2013-04-03 17:12:00,38.5,33.8,30.19,ENE,72,1.0,-999.0,83,0.00,,,0.05,WeatherSnoop3.0,2013-04-03 22:12:00,
2013-04-03 17:17:00,38.5,33.8,30.19,ENE,72,2.0,-999.0,83,0.00,,,0.05,WeatherSnoop3.0,2013-04-03 22:17:00,
2013-04-03 17:22:00,38.5,34.1,30.19,NE,49,5.0,-999.0,84,0.00,,,0.05,WeatherSnoop3.0,2013-04-03 22:22:00,
2013-04-03 17:27:00,38.6,33.6,30.19,ENE,75,2.0,-999.0,82,0.00,,,0.05,WeatherSnoop3.0,2013-04-03 22:27:00,
2013-04-03 17:32:00,38.7,33.7,30.19,NE,44,1.0,-999.0,82,0.00,,,0.05,WeatherSnoop3.0,2013-04-03 22:32:00,
2013-04-03 17:37:00,38.8,34.1,30.19,East,82,2.0,-999.0,83,0.00,,,0.05,WeatherSnoop3.0,2013-04-03 22:37:00,
2013-04-03 17:42:00,38.8,33.8,30.19,East,82,5.0,-999.0,82,0.00,,,0.05,WeatherSnoop3.0,2013-04-03 22:42:00,
2013-04-03 17:47:00,38.8,33.8,30.19,ENE,77,3.0,-999.0,82,0.00,,,0.05,WeatherSnoop3.0,2013-04-03 22:47:00,
2013-04-03 17:52:00,38.8,33.8,30.19,NE,51,5.0,-999.0,82,0.00,,,0.05,WeatherSnoop3.0,2013-04-03 22:52:00,
2013-04-03 17:57:00,38.7,33.7,30.19,ENE,77,1.0,-999.0,82,0.00,,,0.05,WeatherSnoop3.0,2013-04-03 22:57:00,
2013-04-03 18:02:00,38.7,33.7,30.19,NE,37,3.0,-999.0,82,0.00,,,0.05,WeatherSnoop3.0,2013-04-03 23:02:00,
2013-04-03 18:07:00,38.7,34.0,30.19,ENE,74,2.0,-999.0,83,0.00,,,0.05,WeatherSnoop3.0,2013-04-03 23:07:00,
2013-04-03 18:12:00,38.7,34.0,30.19,East,85,3.0,-999.0,83,0.00,,,0.05,WeatherSnoop3.0,2013-04-03 23:12:00,
2013-04-03 18:17:00,38.7,33.7,30.19,ENE,70,3.0,-999.0,82,0.00,,,0.05,WeatherSnoop3.0,2013-04-03 23:17:00,
2013-04-03 18:22:00,38.7,33.7,30.19,NE,56,3.0,-999.0,82,0.00,,,0.05,WeatherSnoop3.0,2013-04-03 23:22:00,
2013-04-03 18:27:00,38.6,33.6,30.20,East,83,0.0,-999.0,82,0.00,,,0.05,WeatherSnoop3.0,2013-04-03 23:27:00,
2013-04-03 18:32:00,38.7,33.7,30.20,NE,53,2.0,-999.0,82,0.00,,,0.05,WeatherSnoop3.0,2013-04-03 23:32:00,
2013-04-03 18:37:00,38.7,33.7,30.20,East,96,1.0,-999.0,82,0.00,,,0.05,WeatherSnoop3.0,2013-04-03 23:37:00,
2013-04-03 18:42:00,38.7,33.7,30.20,ESE,106,1.0,-999.0,82,0.00,,,0.05,WeatherSnoop3.0,2013-04-03 23:42:00,
2013-04-03 18:47:00,38.6,33.6,30.20,East,89,2.0,-999.0,82,0.00,,,0.05,WeatherSnoop3.0,2013-04-03 23:47:00,
2013-04-03 18:52:00,38.5,33.8,30.20,East,93,1.0,-999.0,83,0.00,,,0.05,WeatherSnoop3.0,2013-04-03 23:52:00,
2013-04-03 18:57:00,38.5,33.8,30.21,ENE,61,0.0,-999.0,83,0.00,,,0.05,WeatherSnoop3.0,2013-04-03 23:57:00,
2013-04-03 19:02:00,38.5,33.8,30.21,East,88,1.0,-999.0,83,0.00,,,0.05,WeatherSnoop3.0,2013-04-04 00:02:00,
2013-04-03 19:07:00,38.5,33.8,30.21,East,79,2.0,-999.0,83,0.00,,,0.05,WeatherSnoop3.0,2013-04-04 00:07:00,
2013-04-03 19:12:00,38.6,33.6,30.21,East,96,1.0,-999.0,82,0.00,,,0.05,WeatherSnoop3.0,2013-04-04 00:12:00,
2013-04-03 19:17:00,38.7,34.0,30.21,East,93,0.0,-999.0,83,0.00,,,0.05,WeatherSnoop3.0,2013-04-04 00:17:00,
2013-04-03 19:22:00,38.6,33.9,30.21,East,81,3.0,-999.0,83,0.00,,,0.05,WeatherSnoop3.0,2013-04-04 00:22:00,
2013-04-03 19:27:00,38.5,33.5,30.20,East,95,2.0,-999.0,82,0.00,,,0.05,WeatherSnoop3.0,2013-04-04 00:27:00,
2013-04-03 19:32:00,38.5,33.5,30.21,East,84,2.0,-999.0,82,0.00,,,0.05,WeatherSnoop3.0,2013-04-04 00:32:00,
2013-04-03 19:37:00,38.4,33.4,30.20,East,82,2.0,-999.0,82,0.00,,,0.05,WeatherSnoop3.0,2013-04-04 00:37:00,
2013-04-03 19:42:00,38.4,33.7,30.20,East,97,2.0,-999.0,83,0.00,,,0.05,WeatherSnoop3.0,2013-04-04 00:42:00,
2013-04-03 19:47:00,38.3,33.6,30.20,ENE,68,0.0,-999.0,83,0.00,,,0.05,WeatherSnoop3.0,2013-04-04 00:47:00,
2013-04-03 19:52:00,38.3,33.9,30.20,East,81,2.0,-999.0,84,0.00,,,0.05,WeatherSnoop3.0,2013-04-04 00:52:00,
2013-04-03 19:57:00,38.2,33.5,30.20,East,87,0.0,-999.0,83,0.00,,,0.05,WeatherSnoop3.0,2013-04-04 00:57:00,
2013-04-03 20:02:00,38.2,33.8,30.20,East,83,0.0,-999.0,84,0.00,,,0.05,WeatherSnoop3.0,2013-04-04 01:02:00,
2013-04-03 20:07:00,38.2,33.8,30.20,ENE,63,0.0,-999.0,84,0.00,,,0.05,WeatherSnoop3.0,2013-04-04 01:07:00,
2013-04-03 20:12:00,38.1,33.7,30.20,East,89,0.0,-999.0,84,0.00,,,0.05,WeatherSnoop3.0,2013-04-04 01:12:00,
2013-04-03 20:17:00,38.1,33.7,30.20,ENE,63,2.0,-999.0,84,0.00,,,0.05,WeatherSnoop3.0,2013-04-04 01:17:00,
2013-04-03 20:22:00,38.0,33.6,30.20,ENE,63,3.0,-999.0,84,0.00,,,0.05,WeatherSnoop3.0,2013-04-04 01:22:00,
2013-04-03 20:27:00,38.0,33.6,30.20,East,84,1.0,-999.0,84,0.00,,,0.05,WeatherSnoop3.0,2013-04-04 01:27:00,
2013-04-03 20:32:00,38.0,33.9,30.20,East,85,0.0,-999.0,85,0.00,,,0.05,WeatherSnoop3.0,2013-04-04 01:32:00,
2013-04-03 20:37:00,38.0,34.2,30.20,ENE,64,1.0,-999.0,86,0.00,,,0.05,WeatherSnoop3.0,2013-04-04 01:37:00,
2013-04-03 20:42:00,38.0,34.2,30.20,NE,51,0.0,-999.0,86,0.00,,,0.05,WeatherSnoop3.0,2013-04-04 01:42:00,
2013-04-03 20:47:00,38.0,34.2,30.20,NE,49,2.0,-999.0,86,0.00,,,0.05,WeatherSnoop3.0,2013-04-04 01:47:00,
2013-04-03 20:52:00,37.9,34.1,30.20,East,88,0.0,-999.0,86,0.00,,,0.05,WeatherSnoop3.0,2013-04-04 01:52:00,
2013-04-03 20:57:00,37.9,34.1,30.20,ENE,63,1.0,-999.0,86,0.00,,,0.05,WeatherSnoop3.0,2013-04-04 01:57:00,
2013-04-03 21:02:00,37.9,34.1,30.20,NE,48,3.0,-999.0,86,0.00,,,0.05,WeatherSnoop3.0,2013-04-04 02:02:00,
2013-04-03 21:07:00,37.9,34.1,30.20,ENE,58,0.0,-999.0,86,0.00,,,0.05,WeatherSnoop3.0,2013-04-04 02:07:00,
2013-04-03 21:12:00,37.9,34.4,30.20,ENE,63,0.0,-999.0,87,0.00,,,0.05,WeatherSnoop3.0,2013-04-04 02:12:00,
2013-04-03 21:17:00,37.9,34.4,30.20,North,8,2.0,-999.0,87,0.00,,,0.05,WeatherSnoop3.0,2013-04-04 02:17:00,
2013-04-03 21:22:00,37.8,34.3,30.20,NE,40,1.0,-999.0,87,0.00,,,0.05,WeatherSnoop3.0,2013-04-04 02:22:00,
2013-04-03 21:27:00,37.7,34.2,30.21,NNE,15,1.0,-999.0,87,0.00,,,0.05,WeatherSnoop3.0,2013-04-04 02:27:00,
2013-04-03 21:32:00,37.7,34.2,30.21,North,8,1.0,-999.0,87,0.00,,,0.05,WeatherSnoop3.0,2013-04-04 02:32:00,
2013-04-03 21:37:00,37.6,34.1,30.21,ENE,60,1.0,-999.0,87,0.00,,,0.05,WeatherSnoop3.0,2013-04-04 02:37:00,
2013-04-03 21:42:00,37.6,34.1,30.21,NNE,16,2.0,-999.0,87,0.00,,,0.05,WeatherSnoop3.0,2013-04-04 02:42:00,
2013-04-03 21:47:00,37.6,34.4,30.21,NE,39,2.0,-999.0,88,0.00,,,0.05,WeatherSnoop3.0,2013-04-04 02:47:00,
2013-04-03 21:52:00,37.6,34.4,30.22,NE,43,3.0,-999.0,88,0.00,,,0.05,WeatherSnoop3.0,2013-04-04 02:52:00,
2013-04-03 21:57:00,37.5,34.3,30.22,NE,37,2.0,-999.0,88,0.00,,,0.05,WeatherSnoop3.0,2013-04-04 02:57:00,
2013-04-03 22:02:00,37.5,34.3,30.21,North,358,3.0,-999.0,88,0.00,,,0.05,WeatherSnoop3.0,2013-04-04 03:02:00,
2013-04-03 22:07:00,37.5,34.3,30.21,North,8,2.0,-999.0,88,0.00,,,0.05,WeatherSnoop3.0,2013-04-04 03:07:00,
2013-04-03 22:12:00,37.4,34.2,30.21,NNE,26,2.0,-999.0,88,0.00,,,0.05,WeatherSnoop3.0,2013-04-04 03:12:00,
2013-04-03 22:17:00,37.3,34.4,30.22,North,5,1.0,-999.0,89,0.00,,,0.05,WeatherSnoop3.0,2013-04-04 03:17:00,
2013-04-03 22:22:00,37.3,34.4,30.22,NNE,19,2.0,-999.0,89,0.00,,,0.05,WeatherSnoop3.0,2013-04-04 03:22:00,
2013-04-03 22:27:00,37.2,34.3,30.22,NE,43,1.0,-999.0,89,0.00,,,0.05,WeatherSnoop3.0,2013-04-04 03:27:00,
2013-04-03 22:32:00,37.2,34.3,30.22,North,11,2.0,-999.0,89,0.00,,,0.05,WeatherSnoop3.0,2013-04-04 03:32:00,
2013-04-03 22:37:00,37.2,34.3,30.21,NE,37,3.0,-999.0,89,0.00,,,0.05,WeatherSnoop3.0,2013-04-04 03:37:00,
2013-04-03 22:42:00,37.1,34.2,30.21,North,10,3.0,-999.0,89,0.00,,,0.05,WeatherSnoop3.0,2013-04-04 03:42:00,
2013-04-03 22:47:00,37.0,34.1,30.21,North,4,3.0,-999.0,89,0.00,,,0.05,WeatherSnoop3.0,2013-04-04 03:47:00,
2013-04-03 22:52:00,37.0,34.3,30.21,NNE,32,1.0,-999.0,90,0.00,,,0.05,WeatherSnoop3.0,2013-04-04 03:52:00,
2013-04-03 22:57:00,37.0,34.3,30.21,North,353,1.0,-999.0,90,0.00,,,0.05,WeatherSnoop3.0,2013-04-04 03:57:00,
2013-04-03 23:00:00,36.9,34.2,30.21,NNE,32,3.0,-999.0,90,0.00,,,0.05,WeatherSnoop3.0,2013-04-04 04:00:00,
2013-04-03 23:02:00,36.9,34.2,30.21,NNE,26,0.0,-999.0,90,0.00,,,0.05,WeatherSnoop3.0,2013-04-04 04:02:00,
2013-04-03 23:07:00,36.9,34.2,30.21,NNE,23,0.0,-999.0,90,0.00,,,0.05,WeatherSnoop3.0,2013-04-04 04:07:00,
2013-04-03 23:12:00,36.9,34.2,30.21,NE,39,0.0,-999.0,90,0.00,,,0.05,WeatherSnoop3.0,2013-04-04 04:12:00,
2013-04-03 23:17:00,36.9,34.2,30.21,North,360,1.0,-999.0,90,0.00,,,0.05,WeatherSnoop3.0,2013-04-04 04:17:00,
2013-04-03 23:19:00,36.9,34.5,30.21,NE,34,2.0,-999.0,91,0.00,,,0.05,WeatherSnoop3.0,2013-04-04 04:19:00,
2013-04-03 23:25:00,36.9,34.2,30.21,NNE,28,2.0,-999.0,90,0.00,,,0.05,WeatherSnoop3.0,2013-04-04 04:25:00,
2013-04-03 23:26:00,36.9,34.2,30.21,NNE,28,0.0,-999.0,90,0.00,,,0.05,WeatherSnoop3.0,2013-04-04 04:26:00,
2013-04-03 23:31:00,36.9,34.2,30.21,NE,37,0.0,-999.0,90,0.00,,,0.05,WeatherSnoop3.0,2013-04-04 04:31:00,
2013-04-03 23:36:00,36.9,34.2,30.21,NE,43,1.0,-999.0,90,0.00,,,0.05,WeatherSnoop3.0,2013-04-04 04:36:00,
2013-04-03 23:41:00,36.9,34.2,30.21,NNE,23,0.0,-999.0,90,0.00,,,0.05,WeatherSnoop3.0,2013-04-04 04:41:00,
2013-04-03 23:46:00,36.9,34.2,30.21,NNE,23,0.0,-999.0,90,0.00,,,0.05,WeatherSnoop3.0,2013-04-04 04:46:00,
2013-04-03 23:51:00,36.9,34.2,30.20,North,6,0.0,-999.0,90,0.00,,,0.05,WeatherSnoop3.0,2013-04-04 04:51:00,
2013-04-03 23:56:00,37.0,34.3,30.20,NNE,17,0.0,-999.0,90,0.00,,,0.05,WeatherSnoop3.0,2013-04-04 04:56:00,